www.pogodaiklimat.ru

Погода и климат >> Архив погоды >> Боливия >> Yacuiba


ПОГОДА в Yacuiba

  • Прогноз погоды в Yacuiba
  • Монитор погоды в Yacuiba
  • Климат города

АРХИВ ПОГОДЫ в Yacuiba

Время (UTC), дата Ветер
(напр.,м/с)
 
Видим.   Явления Облачность Т
(С)
Тd
(С)
f
(%)
Тe
(С)
Тes
(С)
Комфортность P
(гПа)
Po
(гПа)
Тmin
(С)
Tmax
(С)
R
(мм)
R24
(мм)
S
(см)
18 11.12 СВ 9 20 км 3/3 700 м
[Cu hum]
+33.8 +22.0 50 +42 +43 опасность
перегрева
1006.2 933.1
21 11.12 СВ 8 20 км 5/0 2000 м
[Ac trans]
+33.8 +23.0 53 +44 +44 опасность
перегрева
1003.1 931.3 +35.1
12 12.12 СВ 3 20 км ясно +27.0 +22.9 78 +36 +41 очень
душно
935.6 +19.6
15 12.12 СВ 4 20 км 1/1 700 м
[Cu hum]
+31.1 +24.2 67 +43 +55 опасность
перегрева
1008.1 936.5
18 12.12 В 5 20 км 4/4 700 м
[Cu hum]
+32.7 +24.1 61 +45 +51 опасность
перегрева
1006.2 934.3
21 12.12 СВ 4 20 км 8/3 750 м
[Cu hum As op Ci fib]
+30.5 +21.7 59 +39 +40 очень
душно
1004.9 933.2 +34.9
12 13.12 штиль 0 20 км 5/0
[Ci fib]
+26.4 +23.5 84 +36 +43 очень
душно
1006.9 935.1 +20.6
15 13.12 СВ 4 20 км 5/0
[Ci fib]
+33.1 +24.5 61 +46 +58 опасность
перегрева
1003.9 932.0
18 13.12 СВ 7 20 км 6/0
[Ci fib]
+35.2 +24.6 54 +48 +52 опасность
перегрева
1002.1 929.4
21 13.12 СВ 6 20 км 6/0
[Ci fib]
+33.8 +23.7 56 +45 +47 опасность
перегрева
1000.2 927.2 +36.4
12 14.12 СВ 4 20 км 4/0
[Ci fib]
+24.3 +21.1 82 +31 +34 очень
душно
1002.7 929.8 +19.0
15 14.12 СВ 5 20 км ясно +29.6 +22.2 64 +38 +49 очень
душно
1001.6 930.5
18 14.12 штиль 0 20 км 3/0 2000 м
[Ac trans]
+34.1 +22.3 50 +43 +63 опасность
перегрева
1002.0 930.7
21 14.12 ЮЗ 4 20 км 8/4 750 м
[Cu hum Ac trans]
+32.8 +22.4 54 +42 +43 опасность
перегрева
1002.6 931.1 +36.1
12 15.12 ЮЗ 4 20 км 10/6 540 м
[Sc As op]
+24.1 +22.9 93 +32 +32 очень
душно
1012.2 940.9 +22.6
15 15.12 ЮЗ 5 4000 м слабый дождь 10/6 300 м
[Frnb As op]
+22.8 +22.5 98 +31 +32 очень
душно
1013.7 941.8
18 15.12 ЮЗ 5 20 км {дождь} 10/6 450 м
[Sc As op]
+23.4 +22.0 92 +32 +33 очень
душно
1011.6 939.8 2
21 15.12 штиль 0 20 км 9/3 700 м
[Sc Ac trans Ci fib]
+26.0 +21.7 77 +33 +35 очень
душно
1010.4 937.6 +26.8
12 16.12 штиль 0 20 км 6/4 700 м
[Sc Ac trans]
+24.6 +21.6 83 +31 +35 очень
душно
1011.6 939.5 +19.9 2
15 16.12 СВ 5 20 км 8/6 700 м
[Cu hum Ac trans]
+28.1 +22.7 73 +37 +40 очень
душно
1009.3 938.2
18 16.12 СВ 6 20 км 6/5 700 м
[Cu hum Ac trans]
+31.8 +23.2 60 +42 +45 опасность
перегрева
1006.2 935.3
21 16.12 СВ 4 20 км 8/5 700 м
[Sc Ci fib]
+31.0 +22.8 62 +41 +42 опасность
перегрева
1005.6 933.2 +33.2
12 17.12 СВ 3 20 км 9/0 2000 м
[As op]
+23.5 +21.4 88 +30 +31 очень
душно
1006.9 935.6 +20.1
15 17.12 СВ 4 20 км 10/0 2000 м
[As op]
+25.3 +21.9 81 +33 +35 очень
душно
1007.1 936.0
18 17.12 СВ 4 20 км 5/1 700 м
[Cu hum Ac trans Ci fib]
+32.1 +21.8 55 +41 +49 опасность
перегрева
1006.0 934.1
21 17.12 СВ 4 20 км 5/4 700 м
[Cu hum Ci fib]
+33.8 +22.0 50 +42 +44 опасность
перегрева
1003.6 931.2 +34.2
12 18.12 ЮЗ 4 20 км 8/0 2000 м
[Ac trans Ci fib]
+24.5 +21.6 84 +31 +34 очень
душно
1006.9 936.3 +20.8
15 18.12 ЮЗ 6 20 км 10/6 540 м
[Sc As op]
+25.0 +22.3 85 +33 +33 очень
душно
1009.2 938.5

 

Местоположение метеостанции Yacuiba (Боливия): широта -21.95 долгота -63.65 высота над уровнем моря 645 м.

В архиве по умолчанию представлена погода в Yacuiba за последнюю неделю. Архивные данные за месяц целиком и за предыдущие месяцы, начиная с января 2011 года, Вы можете получить, выбрав интересующий диапазон дат из раскрывающегося списка и нажав кнопку "Ввод!".


*Определитесь, кто Вы:
робот инопланетянин человек

Внимание! Время в таблицах - всемирное. Для получения местного времени необходимо прибавить поправку, которая в Yacuiba равна -4 ч.

Смотрите также архив погоды в соседних городах и на ближайших метеорологических станциях:

Погода в Tartagal (Аргентина) (76 км)
Погода в Villamontes (Боливия) (81 км)
Погода в Bermejo (Боливия) (113 км)
Погода в Tarija (Боливия) (117 км)
Погода в San Ramon de la Nueva Oran (Аргентина) (150 км)
Погода в La Quiaca (Аргентина) (202 км)
Погода в Camiri (Боливия) (217 км)
Погода в Prats-Gil (Парагвай) (236 км)
Погода в Monteagudo (Боливия) (243 км)
Погода в San Salvador de Jujuy (Аргентина) (307 км)

Пояснения к столбцам:

Ветер - указаны скорость ветра в м/с - средняя за 10 мин, порывы в срок и между сроками (в фигурных скобках) и направление, откуда дует ветер: С - северный, СВ - северо-восточный, В - восточный, ЮВ - юго-восточный, Ю - южный, ЮЗ - юго-западный, З - западный, СЗ - северо-западный.
Видимость - горизонтальная дальность видимости в метрах или километрах. При видимости от 1 до 10 км при отсутствии осадков обычно наблюдается дымка, при ухудшении видимости до 1 км и менее - туман. В сухую погоду видимость может ухудшаться дымом, пылью или мглою.
Явления - указаны атмосферные явления, наблюдавшиеся в срок или в последний час перед сроком; фигурными скобками обозначены явления, наблюдавшиеся между сроками (за 1-3 часа до срока); квадратными скобками обозначены град или гололедные отложения с указанием их диаметра в мм.
Облачность - указаны через наклонную черту общая и нижняя облачность в баллах и высота нижней границы облаков в метрах; квадратными скобками обозначены формы облаков: Ci - перистые, Cs - перисто-слоистые, Cc - перисто-кучевые, Ac - высококучевые, As - высокослоистые, Sc - слоисто-кучевые, Ns - слоисто-дождевые, Cu - кучевые, Cb - кучево-дождевые. Подробнее классификацию облаков см. в Атласе облаков (PDF).
T - Температура воздуха - температура, измеренная на высоте 2 м над землей.
Td - Температура точки росы - температура, при понижении до которой содержащийся в воздухе водяной пар достигнет насыщения.
f - Относительная влажность воздуха - влажноcть воздуха, измеренная на высоте 2 м над землей.
Te - Эффективная температура - температура, которую ощущает одетый по сезону человек в тени. Характеристика душности погоды. При расчете учитывается влияние влажности воздуха и скорости ветра на теплоощущения человека.
Tes - Эффективная температура на солнце - температура, которую ощущает человек, с поправкой на солнечный нагрев. Характеристика знойности погоды. Зависит от высоты солнца над горизонтом, облачности и скорости ветра. Ночью, в пасмурную погоду, а также при ветре 12 м/с и более поправка равна нулю.
P - Атмосферное давление - приведенное к уровню моря атмосферное давление.
Po - Атмосферное давление - измеренное на уровне метеостанции атмосферное давление.
Tmin - Минимальная температура - минимум температуры воздуха на высоте 2 м над землей.
Tmax - Максимальная температура - максимум температуры воздуха на высоте 2 м над землей.
R - Количество осадков - Количество выпавших осадков за период времени, мм. При наведении курсора мыши на число - период времени, за который выпало указанное количество осадков.
R24 - Количество осадков - Количество выпавших осадков за 24 часа, мм.
S - Снежный покров - Высота снежного покрова, см. При наведении курсора мыши на число - состояние снежного покрова и степень покрытия местности в баллах.